User: anonymous   Login
Location: Podia
(1.5569°N, 32.3469°E)
Time: 11:30:06
(UTC+00:00)
Language:

Explorer 11/Cluster Stage 4 - Orbit

View from above orbital plane
View from above orbital plane
View from above satellite
View from above satellite

Ground track
Ground track

The orbit data is extracted from the following two-line orbital elements,

1   107U 61013A   20269.90897099  .00000664  00000-0  67822-4 0  9994
2   107  28.7918 334.0959 0546566 297.8762  56.7484 14.09014122979958
Epoch (UTC): 25 September 2020 21:48:55
Eccentricity: 0.0546566
inclination: 28.7918°
perigee height: 467 km
apogee height: 1258 km
right ascension of ascending node: 334.0959°
argument of perigee: 297.8762°
revolutions per day: 14.09014122
mean anomaly at epoch: 56.7484°
orbit number at epoch: 97995

The dashed part of the orbit path shows where the satellite is in the earth's shadow,  

DLR